Starlink 5671

operational
NORAD ID: 55339 Int'l Des: 2023-013 Owner: SPXS Country: US Constellation: starlink
LEOCIRCULAR

About Starlink 5671

Description loading...

Live Position

Loading 3D Globe...

Upcoming Passes

Altitude History

Altitude vs Time

uPlot chart will show altitude changes over time

Two-Line Element Set

1 55339U 23013J 25304.23370996 -.00002509 00000-0 -17077-3 0 9990
2 55339 43.0051 283.9521 0001184 272.3641 87.7066 15.02527234152237
Epoch: Oct 31, 2025 • Age: 5 hours

Current Status

Altitude 560.0 km
Velocity 7.59 km/s
Sub-Earth Point 28.10°N, 136.98°W
Launch Date Jan 26, 2023
Age 2.7 years
Type internet

Technical Details

Classification Payload
Mass 305.00 kg
Dry Mass 290.00 kg
Total Mass 305.00 kg
Length 0.20 m
Diameter 2.80 m
Span 9.00 m
Shape Box + pan
Manufacturer SPXS
Bus Type Starlink
Phase Status In Orbit
Owner/State SPXS/US

Large Constellations

Loading constellations...